Location: Newark
(45.8667°N, 9.7333°E)
Time: 05:51:16
(UTC+00:00)

A-11 Canister half - Pass Details

Date: 24 January 2020
Orbit: 1517 x 1683 km, 47.2° (Epoch: 19 February)

Event Time Altitude Azimuth Distance (km) Brightness Sun altitude
Rises 05:18:57 0° 292° (WNW) 4,666 - -16.1°
Reaches altitude 10° 05:22:04 10° 287° (WNW) 3,681 - -15.6°
Exits shadow 05:24:24 20° 282° (WNW) 2,988 9.9 -15.2°
Maximum altitude 05:30:52 51° 216° (SW) 1,860 9.3 -14.1°
Drops below altitude 10° 05:39:47 10° 144° (SE) 3,731 11.8 -12.6°
Sets 05:42:59 0° 139° (SE) 4,733 12.6 -12.1°
